Location: Crescent
(42.8242°N, 73.7329°W)
Time: 04:56:34
(UTC+00:00)

A-11 Canister half - Pass Details

Date: 19 February 2026
Orbit: 1524 x 1683 km, 47.3° (Epoch: 14 March)

Event Time Altitude Azimuth Distance (km) Brightness Sun altitude
Rises 01:04:56 0° 286° (WNW) 4,684 12.8 -28.9°
Reaches altitude 10° 01:08:00 10° 288° (WNW) 3,695 11.9 -29.4°
Maximum altitude 01:17:19 74° 14° (NNE) 1,580 8.9 -31.1°
Enters shadow 01:18:59 62° 72° (ENE) 1,692 8.8 -31.4°
